Time,TemperatureF,DewpointF,PressureIn,WindDirection,WindDirectionDegrees,WindSpeedMPH,WindSpeedGustMPH,Humidity,HourlyPrecipIn,Conditions,Clouds,dailyrainin,SoftwareType,DateUTC
2013-07-20 00:01:00,82.3,75.9,29.99,East,99,3.0,7.0,81,0.00,,---,0.00,VWS V14.01,2013-07-20 05:01:00,
2013-07-20 00:06:00,82.3,75.9,29.99,ESE,118,2.0,9.0,81,0.00,,---,0.00,VWS V14.01,2013-07-20 05:06:00,
2013-07-20 00:11:00,82.4,76.4,29.99,SE,125,4.0,9.0,82,0.00,,---,0.00,VWS V14.01,2013-07-20 05:11:00,
2013-07-20 00:16:00,82.4,76.7,29.99,SE,127,3.0,10.0,83,0.00,,---,0.00,VWS V14.01,2013-07-20 05:16:00,
2013-07-20 00:21:00,82.3,76.3,29.99,ENE,77,2.0,10.0,82,0.00,,---,0.00,VWS V14.01,2013-07-20 05:21:00,
2013-07-20 00:26:00,82.2,76.2,29.99,SE,142,2.0,10.0,82,0.00,,---,0.00,VWS V14.01,2013-07-20 05:26:00,
2013-07-20 00:31:00,82.2,76.2,29.99,SSE,155,5.0,10.0,82,0.00,,---,0.00,VWS V14.01,2013-07-20 05:31:00,
2013-07-20 00:36:00,82.1,76.1,29.99,SE,137,7.0,10.0,82,0.00,,---,0.00,VWS V14.01,2013-07-20 05:36:00,
2013-07-20 00:41:00,82.1,75.7,29.99,SE,145,3.0,10.0,81,0.00,,---,0.00,VWS V14.01,2013-07-20 05:41:00,
2013-07-20 00:46:00,82.2,76.2,29.99,SE,143,4.0,10.0,82,0.00,,---,0.00,VWS V14.01,2013-07-20 05:46:00,
2013-07-20 00:51:00,82.1,76.1,29.99,SSE,161,2.0,10.0,82,0.00,,---,0.00,VWS V14.01,2013-07-20 05:51:00,
2013-07-20 00:56:00,82.0,75.6,29.99,SE,141,3.0,10.0,81,0.00,,---,0.00,VWS V14.01,2013-07-20 05:56:00,
2013-07-20 01:01:00,82.1,76.1,29.99,SE,133,2.0,6.0,82,0.00,,---,0.00,VWS V14.01,2013-07-20 06:01:00,
2013-07-20 01:06:00,82.1,76.1,29.99,SE,146,7.0,7.0,82,0.00,,---,0.00,VWS V14.01,2013-07-20 06:06:00,
2013-07-20 01:11:00,82.1,76.1,29.99,SE,145,4.0,7.0,82,0.00,,---,0.00,VWS V14.01,2013-07-20 06:11:00,
2013-07-20 01:16:00,82.0,76.0,29.99,ENE,76,4.0,7.0,82,0.00,,---,0.00,VWS V14.01,2013-07-20 06:16:00,
2013-07-20 01:21:00,81.9,75.9,29.99,SSE,157,3.0,8.0,82,0.00,,---,0.00,VWS V14.01,2013-07-20 06:21:00,
2013-07-20 01:26:00,82.0,76.0,29.98,SE,142,5.0,8.0,82,0.00,,---,0.00,VWS V14.01,2013-07-20 06:26:00,
2013-07-20 01:31:00,82.0,76.0,29.98,SE,139,2.0,11.0,82,0.00,,---,0.00,VWS V14.01,2013-07-20 06:31:00,
2013-07-20 01:36:00,82.1,76.1,29.98,SSE,150,6.0,11.0,82,0.00,,---,0.00,VWS V14.01,2013-07-20 06:36:00,
2013-07-20 01:41:00,82.0,76.0,29.98,SE,142,6.0,11.0,82,0.00,,---,0.00,VWS V14.01,2013-07-20 06:41:00,
2013-07-20 01:46:00,82.0,76.0,29.98,South,177,5.0,11.0,82,0.00,,---,0.00,VWS V14.01,2013-07-20 06:46:00,
2013-07-20 01:51:00,82.0,76.3,29.98,ESE,111,4.0,11.0,83,0.00,,---,0.00,VWS V14.01,2013-07-20 06:51:00,
2013-07-20 01:56:00,81.9,76.2,29.98,SSE,153,6.0,11.0,83,0.00,,---,0.00,VWS V14.01,2013-07-20 06:56:00,
2013-07-20 02:01:00,81.9,76.2,29.98,South,190,1.0,4.0,83,0.00,,---,0.00,VWS V14.01,2013-07-20 07:01:00,
2013-07-20 02:06:00,81.9,76.2,29.98,SSE,150,1.0,7.0,83,0.00,,---,0.00,VWS V14.01,2013-07-20 07:06:00,
2013-07-20 02:11:00,81.9,76.2,29.98,SSE,157,3.0,9.0,83,0.00,,---,0.00,VWS V14.01,2013-07-20 07:11:00,
2013-07-20 02:16:00,81.8,76.1,29.98,SSE,156,5.0,9.0,83,0.00,,---,0.00,VWS V14.01,2013-07-20 07:16:00,
2013-07-20 02:21:00,81.9,76.2,29.98,SSE,148,4.0,9.0,83,0.00,,---,0.00,VWS V14.01,2013-07-20 07:21:00,
2013-07-20 02:26:00,82.0,76.7,29.97,SSE,152,4.0,9.0,84,0.00,,---,0.00,VWS V14.01,2013-07-20 07:26:00,
2013-07-20 02:31:00,81.9,76.6,29.97,SSE,167,4.0,9.0,84,0.00,,---,0.00,VWS V14.01,2013-07-20 07:31:00,
2013-07-20 02:36:00,81.9,76.6,29.97,ESE,120,2.0,9.0,84,0.00,,---,0.00,VWS V14.01,2013-07-20 07:36:00,
2013-07-20 02:41:00,81.8,76.5,29.97,SSE,152,4.0,9.0,84,0.00,,---,0.00,VWS V14.01,2013-07-20 07:41:00,
2013-07-20 02:47:00,81.8,76.1,29.97,SSE,149,3.0,9.0,83,0.00,,---,0.00,VWS V14.01,2013-07-20 07:47:00,
2013-07-20 02:52:00,81.8,76.1,29.97,SSE,162,3.0,9.0,83,0.00,,---,0.00,VWS V14.01,2013-07-20 07:52:00,
2013-07-20 02:57:00,81.8,76.5,29.97,South,174,5.0,9.0,84,0.00,,---,0.00,VWS V14.01,2013-07-20 07:57:00,
2013-07-20 03:02:00,81.8,76.5,29.96,SSE,159,3.0,5.0,84,0.00,,---,0.00,VWS V14.01,2013-07-20 08:02:00,
2013-07-20 03:07:00,81.8,76.5,29.96,SSE,159,3.0,7.0,84,0.00,,---,0.00,VWS V14.01,2013-07-20 08:07:00,
2013-07-20 03:12:00,81.8,76.5,29.96,South,171,4.0,7.0,84,0.00,,---,0.00,VWS V14.01,2013-07-20 08:12:00,
2013-07-20 03:17:00,81.7,76.4,29.96,South,174,3.0,8.0,84,0.00,,---,0.00,VWS V14.01,2013-07-20 08:17:00,
2013-07-20 03:22:00,81.7,76.4,29.96,SE,129,2.0,8.0,84,0.00,,---,0.00,VWS V14.01,2013-07-20 08:22:00,
2013-07-20 03:27:00,81.6,76.3,29.96,SSW,194,4.0,8.0,84,0.00,,---,0.00,VWS V14.01,2013-07-20 08:27:00,
2013-07-20 03:32:00,81.6,76.3,29.96,SSE,148,4.0,8.0,84,0.00,,---,0.00,VWS V14.01,2013-07-20 08:32:00,
2013-07-20 03:37:00,81.5,76.2,29.96,SSE,164,1.0,8.0,84,0.00,,---,0.00,VWS V14.01,2013-07-20 08:37:00,
2013-07-20 03:42:00,81.4,76.5,29.96,South,186,2.0,8.0,85,0.00,,---,0.00,VWS V14.01,2013-07-20 08:42:00,
2013-07-20 03:47:00,81.4,76.5,29.96,South,169,2.0,8.0,85,0.00,,---,0.00,VWS V14.01,2013-07-20 08:47:00,
2013-07-20 03:52:00,81.4,76.5,29.96,SSE,149,3.0,8.0,85,0.00,,---,0.00,VWS V14.01,2013-07-20 08:52:00,
2013-07-20 03:57:00,81.4,76.5,29.96,SSE,160,2.0,8.0,85,0.00,,---,0.00,VWS V14.01,2013-07-20 08:57:00,
2013-07-20 04:02:00,81.4,76.8,29.96,SE,131,2.0,6.0,86,0.00,,---,0.00,VWS V14.01,2013-07-20 09:02:00,
2013-07-20 04:07:00,81.4,76.8,29.96,SE,143,1.0,6.0,86,0.00,,---,0.00,VWS V14.01,2013-07-20 09:07:00,
2013-07-20 04:12:00,81.4,76.8,29.95,South,173,1.0,6.0,86,0.00,,---,0.00,VWS V14.01,2013-07-20 09:12:00,
2013-07-20 04:17:00,81.2,76.6,29.95,ESE,118,4.0,6.0,86,0.00,,---,0.00,VWS V14.01,2013-07-20 09:17:00,
2013-07-20 04:22:00,81.1,76.2,29.95,SE,143,1.0,6.0,85,0.00,,---,0.00,VWS V14.01,2013-07-20 09:22:00,
2013-07-20 04:27:00,81.1,76.2,29.96,SE,124,1.0,6.0,85,0.00,,---,0.00,VWS V14.01,2013-07-20 09:27:00,
2013-07-20 04:32:00,81.1,76.5,29.95,SSW,199,1.0,6.0,86,0.00,,---,0.00,VWS V14.01,2013-07-20 09:32:00,
2013-07-20 04:37:00,81.1,76.5,29.95,South,169,2.0,6.0,86,0.00,,---,0.00,VWS V14.01,2013-07-20 09:37:00,
2013-07-20 04:42:00,81.1,76.5,29.96,SSE,149,1.0,6.0,86,0.00,,---,0.00,VWS V14.01,2013-07-20 09:42:00,
2013-07-20 04:47:00,81.1,76.5,29.96,SE,142,1.0,6.0,86,0.00,,---,0.00,VWS V14.01,2013-07-20 09:47:00,
2013-07-20 04:52:00,81.0,76.4,29.96,SE,142,2.0,6.0,86,0.00,,---,0.00,VWS V14.01,2013-07-20 09:52:00,
2013-07-20 04:57:00,81.1,76.2,29.96,SSE,150,0.0,6.0,85,0.00,,---,0.00,VWS V14.01,2013-07-20 09:57:00,
2013-07-20 05:02:00,81.1,76.2,29.96,SSE,152,1.0,3.0,85,0.00,,---,0.00,VWS V14.01,2013-07-20 10:02:00,
2013-07-20 05:08:00,81.1,76.2,29.95,SE,145,2.0,4.0,85,0.00,,---,0.00,VWS V14.01,2013-07-20 10:08:00,
2013-07-20 05:13:00,81.1,76.2,29.96,SSE,167,1.0,4.0,85,0.00,,---,0.00,VWS V14.01,2013-07-20 10:13:00,
2013-07-20 05:18:00,81.1,76.2,29.96,ESE,122,3.0,5.0,85,0.00,,---,0.00,VWS V14.01,2013-07-20 10:18:00,
2013-07-20 05:22:00,81.1,76.2,29.96,SE,143,2.0,5.0,85,0.00,,---,0.00,VWS V14.01,2013-07-20 10:22:00,
2013-07-20 05:28:00,81.1,76.2,29.95,SSE,148,1.0,5.0,85,0.00,,---,0.00,VWS V14.01,2013-07-20 10:28:00,
2013-07-20 05:33:00,81.0,75.7,29.96,SE,125,4.0,5.0,84,0.00,,---,0.00,VWS V14.01,2013-07-20 10:33:00,
2013-07-20 05:38:00,80.9,75.6,29.95,SSE,153,2.0,5.0,84,0.00,,---,0.00,VWS V14.01,2013-07-20 10:38:00,
2013-07-20 05:43:00,80.9,75.6,29.95,SE,146,3.0,5.0,84,0.00,,---,0.00,VWS V14.01,2013-07-20 10:43:00,
2013-07-20 05:48:00,80.8,75.5,29.95,SE,139,1.0,5.0,84,0.00,,---,0.00,VWS V14.01,2013-07-20 10:48:00,
2013-07-20 05:53:00,80.8,75.5,29.95,SE,143,2.0,5.0,84,0.00,,---,0.00,VWS V14.01,2013-07-20 10:53:00,
2013-07-20 05:58:00,80.7,75.1,29.95,SSE,168,2.0,5.0,83,0.00,,---,0.00,VWS V14.01,2013-07-20 10:58:00,
2013-07-20 06:03:00,80.7,75.1,29.95,SSE,167,3.0,3.0,83,0.00,,---,0.00,VWS V14.01,2013-07-20 11:03:00,
2013-07-20 06:08:00,80.8,75.2,29.95,SE,141,1.0,3.0,83,0.00,,---,0.00,VWS V14.01,2013-07-20 11:08:00,
2013-07-20 06:13:00,80.7,75.1,29.95,SSE,149,1.0,3.0,83,0.00,,---,0.00,VWS V14.01,2013-07-20 11:13:00,
2013-07-20 06:18:00,80.7,75.1,29.95,SE,129,2.0,4.0,83,0.00,,---,0.00,VWS V14.01,2013-07-20 11:18:00,
2013-07-20 06:23:00,80.6,75.0,29.96,SE,139,1.0,4.0,83,0.00,,---,0.00,VWS V14.01,2013-07-20 11:23:00,
2013-07-20 06:28:00,80.7,75.1,29.96,SSE,153,1.0,4.0,83,0.00,,---,0.00,VWS V14.01,2013-07-20 11:28:00,
2013-07-20 06:33:00,80.7,75.4,29.96,South,190,4.0,4.0,84,0.00,,---,0.00,VWS V14.01,2013-07-20 11:33:00,
2013-07-20 06:38:00,80.7,75.4,29.96,SSE,159,4.0,4.0,84,0.00,,---,0.00,VWS V14.01,2013-07-20 11:38:00,
2013-07-20 06:42:00,80.7,75.8,29.96,SSE,149,1.0,4.0,85,0.00,,---,0.00,VWS V14.01,2013-07-20 11:42:00,
2013-07-20 06:48:00,80.7,75.8,29.96,SSE,155,0.0,4.0,85,0.00,,---,0.00,VWS V14.01,2013-07-20 11:48:00,
2013-07-20 06:52:00,80.6,75.7,29.96,SSE,153,0.0,4.0,85,0.00,,---,0.00,VWS V14.01,2013-07-20 11:52:00,
2013-07-20 06:57:00,80.6,75.7,29.96,SE,142,1.0,4.0,85,0.00,,---,0.00,VWS V14.01,2013-07-20 11:57:00,
2013-07-20 07:03:00,80.6,75.7,29.96,SE,129,1.0,1.0,85,0.00,,---,0.00,VWS V14.01,2013-07-20 12:03:00,
2013-07-20 07:08:00,80.5,75.6,29.96,SSE,150,1.0,2.0,85,0.00,,---,0.00,VWS V14.01,2013-07-20 12:08:00,
2013-07-20 07:13:00,80.5,75.6,29.96,SSE,147,0.0,3.0,85,0.00,,---,0.00,VWS V14.01,2013-07-20 12:13:00,
2013-07-20 07:18:00,80.5,75.9,29.96,SE,145,1.0,3.0,86,0.00,,---,0.00,VWS V14.01,2013-07-20 12:18:00,
2013-07-20 07:23:00,80.6,76.0,29.97,ESE,123,2.0,3.0,86,0.00,,---,0.00,VWS V14.01,2013-07-20 12:23:00,
2013-07-20 07:28:00,81.1,76.5,29.97,SE,139,0.0,3.0,86,0.00,,---,0.00,VWS V14.01,2013-07-20 12:28:00,
2013-07-20 07:33:00,81.7,76.8,29.97,SE,132,1.0,3.0,85,0.00,,---,0.00,VWS V14.01,2013-07-20 12:33:00,
2013-07-20 07:38:00,82.2,76.9,29.97,South,169,0.0,3.0,84,0.00,,---,0.00,VWS V14.01,2013-07-20 12:38:00,
2013-07-20 07:43:00,82.8,77.1,29.97,SSE,158,0.0,3.0,83,0.00,,---,0.00,VWS V14.01,2013-07-20 12:43:00,
2013-07-20 07:48:00,83.4,77.0,29.97,ESE,114,3.0,3.0,81,0.00,,---,0.00,VWS V14.01,2013-07-20 12:48:00,
2013-07-20 07:53:00,83.6,77.2,29.97,SE,141,3.0,3.0,81,0.00,,---,0.00,VWS V14.01,2013-07-20 12:53:00,
2013-07-20 07:58:00,83.6,76.8,29.97,SE,141,3.0,5.0,80,0.00,,---,0.00,VWS V14.01,2013-07-20 12:58:00,
2013-07-20 08:03:00,83.8,77.0,29.97,SSE,162,3.0,3.0,80,0.00,,---,0.00,VWS V14.01,2013-07-20 13:03:00,
2013-07-20 08:08:00,84.1,76.9,29.98,SSE,159,2.0,3.0,79,0.00,,---,0.00,VWS V14.01,2013-07-20 13:08:00,
2013-07-20 08:13:00,84.5,77.3,29.97,SSE,149,0.0,3.0,79,0.00,,---,0.00,VWS V14.01,2013-07-20 13:13:00,
2013-07-20 08:18:00,84.3,76.7,29.97,South,187,1.0,4.0,78,0.00,,---,0.00,VWS V14.01,2013-07-20 13:18:00,
2013-07-20 08:23:00,84.5,77.3,29.97,SE,131,2.0,4.0,79,0.00,,---,0.00,VWS V14.01,2013-07-20 13:23:00,
2013-07-20 08:28:00,84.1,76.5,29.97,ESE,122,1.0,4.0,78,0.00,,---,0.00,VWS V14.01,2013-07-20 13:28:00,
2013-07-20 08:33:00,84.1,76.9,29.97,ESE,120,4.0,4.0,79,0.00,,---,0.00,VWS V14.01,2013-07-20 13:33:00,
2013-07-20 08:38:00,84.0,76.4,29.97,SE,136,0.0,4.0,78,0.00,,---,0.00,VWS V14.01,2013-07-20 13:38:00,
2013-07-20 08:43:00,84.6,77.0,29.97,SSE,153,1.0,4.0,78,0.00,,---,0.00,VWS V14.01,2013-07-20 13:43:00,
2013-07-20 08:48:00,85.2,76.8,29.98,South,172,1.0,4.0,76,0.00,,---,0.00,VWS V14.01,2013-07-20 13:48:00,
2013-07-20 08:53:00,85.6,76.8,29.97,SSE,147,1.0,4.0,75,0.00,,---,0.00,VWS V14.01,2013-07-20 13:53:00,
2013-07-20 08:58:00,85.9,77.1,29.98,SE,139,0.0,4.0,75,0.00,,---,0.00,VWS V14.01,2013-07-20 13:58:00,
2013-07-20 09:03:00,86.2,76.9,29.98,SSW,197,3.0,3.0,74,0.00,,---,0.00,VWS V14.01,2013-07-20 14:03:00,
2013-07-20 09:08:00,86.3,77.4,29.98,East,94,2.0,4.0,75,0.00,,---,0.00,VWS V14.01,2013-07-20 14:08:00,
2013-07-20 09:13:00,86.0,76.8,29.98,ESE,122,4.0,4.0,74,0.00,,---,0.00,VWS V14.01,2013-07-20 14:13:00,
2013-07-20 09:18:00,85.6,76.4,29.98,ESE,117,3.0,5.0,74,0.00,,---,0.00,VWS V14.01,2013-07-20 14:18:00,
2013-07-20 09:23:00,85.7,76.5,29.97,SE,133,5.0,6.0,74,0.00,,---,0.00,VWS V14.01,2013-07-20 14:23:00,
2013-07-20 09:28:00,85.1,75.9,29.98,SSW,208,1.0,6.0,74,0.00,,---,0.00,VWS V14.01,2013-07-20 14:28:00,
2013-07-20 09:33:00,84.9,76.5,29.98,SSE,165,2.0,6.0,76,0.00,,---,0.00,VWS V14.01,2013-07-20 14:33:00,
2013-07-20 09:38:00,85.2,76.4,29.97,ESE,117,4.0,6.0,75,0.00,,---,0.00,VWS V14.01,2013-07-20 14:38:00,
2013-07-20 09:43:00,85.5,76.3,29.98,SSE,154,2.0,6.0,74,0.00,,---,0.00,VWS V14.01,2013-07-20 14:43:00,
2013-07-20 09:48:00,85.8,76.6,29.98,SSE,158,4.0,6.0,74,0.00,,---,0.00,VWS V14.01,2013-07-20 14:48:00,
2013-07-20 09:53:00,85.8,77.0,29.97,ESE,111,2.0,6.0,75,0.00,,---,0.00,VWS V14.01,2013-07-20 14:53:00,
2013-07-20 09:58:00,85.6,77.2,29.97,SW,214,1.0,6.0,76,0.00,,---,0.00,VWS V14.01,2013-07-20 14:58:00,
2013-07-20 10:03:00,85.6,77.2,29.97,ESE,103,5.0,5.0,76,0.00,,---,0.00,VWS V14.01,2013-07-20 15:03:00,
2013-07-20 10:08:00,85.2,76.8,29.97,ESE,109,3.0,5.0,76,0.00,,---,0.00,VWS V14.01,2013-07-20 15:08:00,
2013-07-20 10:13:00,84.6,76.6,29.97,SE,146,2.0,6.0,77,0.00,,---,0.00,VWS V14.01,2013-07-20 15:13:00,
2013-07-20 10:18:00,84.5,76.9,29.97,SSE,156,1.0,6.0,78,0.00,,---,0.00,VWS V14.01,2013-07-20 15:18:00,
2013-07-20 10:23:00,85.1,77.1,29.97,SSE,165,2.0,6.0,77,0.00,,---,0.00,VWS V14.01,2013-07-20 15:23:00,
2013-07-20 10:28:00,85.3,77.3,29.97,SSE,162,5.0,6.0,77,0.00,,---,0.00,VWS V14.01,2013-07-20 15:28:00,
2013-07-20 10:33:00,84.9,76.9,29.97,ESE,109,1.0,6.0,77,0.00,,---,0.00,VWS V14.01,2013-07-20 15:33:00,
2013-07-20 10:38:00,85.0,77.4,29.97,ESE,111,4.0,6.0,78,0.00,,---,0.00,VWS V14.01,2013-07-20 15:38:00,
2013-07-20 10:43:00,85.1,77.5,29.97,SE,141,3.0,6.0,78,0.00,,---,0.00,VWS V14.01,2013-07-20 15:43:00,
2013-07-20 10:48:00,85.4,77.4,29.97,SE,129,1.0,6.0,77,0.00,,---,0.00,VWS V14.01,2013-07-20 15:48:00,
2013-07-20 10:53:00,85.3,77.3,29.97,ENE,70,1.0,6.0,77,0.00,,---,0.00,VWS V14.01,2013-07-20 15:53:00,
2013-07-20 10:58:00,85.4,76.6,29.97,ESE,118,3.0,8.0,75,0.00,,---,0.00,VWS V14.01,2013-07-20 15:58:00,
2013-07-20 11:03:00,85.7,77.3,29.97,SSE,152,1.0,5.0,76,0.00,,---,0.00,VWS V14.01,2013-07-20 16:03:00,
2013-07-20 11:08:00,86.0,77.2,29.97,SE,146,5.0,8.0,75,0.00,,---,0.00,VWS V14.01,2013-07-20 16:08:00,
2013-07-20 11:13:00,86.0,76.3,29.97,East,82,5.0,8.0,73,0.00,,---,0.00,VWS V14.01,2013-07-20 16:13:00,
2013-07-20 11:18:00,85.9,77.1,29.97,SSW,206,2.0,9.0,75,0.00,,---,0.00,VWS V14.01,2013-07-20 16:18:00,
2013-07-20 11:23:00,86.3,77.0,29.97,SE,130,5.0,9.0,74,0.00,,---,0.00,VWS V14.01,2013-07-20 16:23:00,
2013-07-20 11:28:00,85.7,76.9,29.97,East,97,5.0,9.0,75,0.00,,---,0.00,VWS V14.01,2013-07-20 16:28:00,
2013-07-20 11:33:00,85.6,77.2,29.97,ESE,115,6.0,9.0,76,0.00,,---,0.00,VWS V14.01,2013-07-20 16:33:00,
2013-07-20 11:38:00,85.5,77.1,29.97,ENE,70,3.0,9.0,76,0.00,,---,0.00,VWS V14.01,2013-07-20 16:38:00,
2013-07-20 11:43:00,85.6,77.2,29.97,ENE,72,6.0,9.0,76,0.00,,---,0.00,VWS V14.01,2013-07-20 16:43:00,
2013-07-20 11:48:00,85.7,76.9,29.97,NE,43,6.0,9.0,75,0.00,,---,0.00,VWS V14.01,2013-07-20 16:48:00,
2013-07-20 11:53:00,85.8,77.0,29.97,ESE,102,6.0,9.0,75,0.00,,---,0.00,VWS V14.01,2013-07-20 16:53:00,
2013-07-20 11:58:00,85.8,77.4,29.97,SE,130,3.0,10.0,76,0.00,,---,0.00,VWS V14.01,2013-07-20 16:58:00,
2013-07-20 12:03:00,85.8,77.0,29.97,East,101,4.0,9.0,75,0.00,,---,0.00,VWS V14.01,2013-07-20 17:03:00,
2013-07-20 12:08:00,85.6,77.2,29.97,ESE,107,6.0,10.0,76,0.00,,---,0.00,VWS V14.01,2013-07-20 17:08:00,
2013-07-20 12:13:00,85.8,77.0,29.97,ESE,112,6.0,10.0,75,0.00,,---,0.00,VWS V14.01,2013-07-20 17:13:00,
2013-07-20 12:18:00,85.7,76.9,29.97,SE,138,5.0,10.0,75,0.00,,---,0.00,VWS V14.01,2013-07-20 17:18:00,
2013-07-20 12:23:00,85.9,77.1,29.97,East,100,3.0,10.0,75,0.00,,---,0.00,VWS V14.01,2013-07-20 17:23:00,
2013-07-20 12:28:00,86.1,77.7,29.97,ESE,118,7.0,10.0,76,0.00,,---,0.00,VWS V14.01,2013-07-20 17:28:00,
2013-07-20 12:33:00,86.7,77.8,29.97,ENE,61,5.0,10.0,75,0.00,,---,0.00,VWS V14.01,2013-07-20 17:33:00,
2013-07-20 12:38:00,86.5,77.6,29.97,ESE,112,11.0,11.0,75,0.00,,---,0.00,VWS V14.01,2013-07-20 17:38:00,
2013-07-20 12:43:00,85.9,77.5,29.97,ESE,105,3.0,11.0,76,0.00,,---,0.00,VWS V14.01,2013-07-20 17:43:00,
2013-07-20 12:48:00,85.8,77.0,29.97,ESE,117,6.0,11.0,75,0.00,,---,0.00,VWS V14.01,2013-07-20 17:48:00,
2013-07-20 12:53:00,85.8,76.6,29.97,East,98,8.0,11.0,74,0.00,,---,0.00,VWS V14.01,2013-07-20 17:53:00,
2013-07-20 12:58:00,86.0,77.6,29.97,ESE,113,4.0,11.0,76,0.00,,---,0.00,VWS V14.01,2013-07-20 17:58:00,
2013-07-20 13:03:00,86.4,77.5,29.97,ENE,68,5.0,9.0,75,0.00,,---,0.00,VWS V14.01,2013-07-20 18:03:00,
2013-07-20 13:08:00,86.4,77.1,29.97,SE,133,5.0,9.0,74,0.00,,---,0.00,VWS V14.01,2013-07-20 18:08:00,
2013-07-20 13:13:00,86.3,77.8,29.97,East,87,4.0,11.0,76,0.00,,---,0.00,VWS V14.01,2013-07-20 18:13:00,
2013-07-20 13:18:00,86.3,76.6,29.97,ENE,78,6.0,11.0,73,0.00,,---,0.00,VWS V14.01,2013-07-20 18:18:00,
2013-07-20 13:23:00,86.0,77.2,29.97,SE,127,8.0,11.0,75,0.00,,---,0.00,VWS V14.01,2013-07-20 18:23:00,
2013-07-20 13:28:00,85.5,77.5,29.96,ESE,123,4.0,11.0,77,0.00,,---,0.00,VWS V14.01,2013-07-20 18:28:00,
2013-07-20 13:33:00,85.3,76.9,29.96,ESE,118,9.0,12.0,76,0.00,,---,0.00,VWS V14.01,2013-07-20 18:33:00,
2013-07-20 13:38:00,85.7,77.3,29.96,SSE,149,3.0,12.0,76,0.00,,---,0.00,VWS V14.01,2013-07-20 18:38:00,
2013-07-20 13:43:00,86.3,77.8,29.96,ESE,115,8.0,12.0,76,0.00,,---,0.00,VWS V14.01,2013-07-20 18:43:00,
2013-07-20 13:49:00,86.5,77.6,29.96,ESE,115,7.0,12.0,75,0.00,,---,0.00,VWS V14.01,2013-07-20 18:49:00,
2013-07-20 13:54:00,86.3,77.4,29.96,East,100,9.0,12.0,75,0.00,,---,0.00,VWS V14.01,2013-07-20 18:54:00,
2013-07-20 13:59:00,86.0,77.6,29.96,ESE,108,5.0,12.0,76,0.00,,---,0.00,VWS V14.01,2013-07-20 18:59:00,
2013-07-20 14:04:00,86.1,77.7,29.95,ESE,118,9.0,10.0,76,0.00,,---,0.00,VWS V14.01,2013-07-20 19:04:00,
2013-07-20 14:09:00,86.5,78.0,29.95,ENE,65,7.0,12.0,76,0.00,,---,0.00,VWS V14.01,2013-07-20 19:09:00,
2013-07-20 14:14:00,86.5,78.0,29.95,SE,124,8.0,14.0,76,0.00,,---,0.00,VWS V14.01,2013-07-20 19:14:00,
2013-07-20 14:19:00,86.6,78.1,29.95,East,99,7.0,14.0,76,0.00,,---,0.00,VWS V14.01,2013-07-20 19:19:00,
2013-07-20 14:24:00,86.5,76.8,29.95,East,90,6.0,14.0,73,0.00,,---,0.00,VWS V14.01,2013-07-20 19:24:00,
2013-07-20 14:29:00,85.8,76.2,29.94,ESE,108,6.0,14.0,73,0.00,,---,0.00,VWS V14.01,2013-07-20 19:29:00,
2013-07-20 14:35:00,86.2,77.3,29.94,ESE,115,8.0,14.0,75,0.00,,---,0.00,VWS V14.01,2013-07-20 19:35:00,
2013-07-20 14:40:00,86.2,77.8,29.94,SE,131,7.0,14.0,76,0.00,,---,0.00,VWS V14.01,2013-07-20 19:40:00,
2013-07-20 14:45:00,86.0,77.9,29.94,ESE,106,2.0,14.0,77,0.00,,---,0.00,VWS V14.01,2013-07-20 19:45:00,
2013-07-20 14:50:00,85.4,77.0,29.94,ESE,120,8.0,14.0,76,0.00,,---,0.00,VWS V14.01,2013-07-20 19:50:00,
2013-07-20 14:55:00,84.8,76.8,29.93,SE,126,3.0,14.0,77,0.00,,---,0.00,VWS V14.01,2013-07-20 19:55:00,
2013-07-20 15:00:00,84.6,76.6,29.93,East,91,6.0,14.0,77,0.00,,---,0.00,VWS V14.01,2013-07-20 20:00:00,
2013-07-20 15:05:00,84.5,76.9,29.93,SE,128,5.0,9.0,78,0.00,,---,0.00,VWS V14.01,2013-07-20 20:05:00,
2013-07-20 15:10:00,84.5,77.3,29.93,ENE,75,10.0,12.0,79,0.00,,---,0.00,VWS V14.01,2013-07-20 20:10:00,
2013-07-20 15:15:00,84.4,77.2,29.93,SE,124,5.0,12.0,79,0.00,,---,0.00,VWS V14.01,2013-07-20 20:15:00,
2013-07-20 15:21:00,84.3,77.5,29.93,ESE,102,3.0,12.0,80,0.00,,---,0.00,VWS V14.01,2013-07-20 20:21:00,
2013-07-20 15:26:00,84.3,77.5,29.93,ESE,105,4.0,12.0,80,0.00,,---,0.00,VWS V14.01,2013-07-20 20:26:00,
2013-07-20 15:31:00,84.3,77.5,29.93,SE,125,6.0,12.0,80,0.00,,---,0.00,VWS V14.01,2013-07-20 20:31:00,
2013-07-20 15:36:00,84.3,77.5,29.93,East,83,7.0,12.0,80,0.00,,---,0.00,VWS V14.01,2013-07-20 20:36:00,
2013-07-20 15:41:00,84.1,76.9,29.93,ESE,102,6.0,12.0,79,0.00,,---,0.00,VWS V14.01,2013-07-20 20:41:00,
2013-07-20 15:46:00,84.2,77.4,29.93,ESE,122,7.0,12.0,80,0.00,,---,0.00,VWS V14.01,2013-07-20 20:46:00,
2013-07-20 15:51:00,84.2,77.0,29.93,ESE,114,4.0,12.0,79,0.00,,---,0.00,VWS V14.01,2013-07-20 20:51:00,
2013-07-20 15:56:00,84.2,77.4,29.93,SE,146,2.0,12.0,80,0.00,,---,0.00,VWS V14.01,2013-07-20 20:56:00,
2013-07-20 16:01:00,84.3,77.5,29.93,SE,139,7.0,7.0,80,0.00,,---,0.00,VWS V14.01,2013-07-20 21:01:00,
2013-07-20 16:06:00,84.5,77.7,29.92,South,186,4.0,9.0,80,0.00,,---,0.00,VWS V14.01,2013-07-20 21:06:00,
2013-07-20 16:11:00,84.2,77.0,29.92,SE,129,2.0,11.0,79,0.00,,---,0.00,VWS V14.01,2013-07-20 21:11:00,
2013-07-20 16:17:00,84.1,76.9,29.92,SE,124,4.0,11.0,79,0.00,,---,0.00,VWS V14.01,2013-07-20 21:17:00,
2013-07-20 16:22:00,84.1,77.3,29.92,ESE,110,10.0,11.0,80,0.00,,---,0.00,VWS V14.01,2013-07-20 21:22:00,
2013-07-20 16:27:00,84.1,77.3,29.92,SE,138,7.0,11.0,80,0.00,,---,0.00,VWS V14.01,2013-07-20 21:27:00,
2013-07-20 16:32:00,84.1,77.3,29.92,ESE,117,4.0,11.0,80,0.00,,---,0.00,VWS V14.01,2013-07-20 21:32:00,
2013-07-20 16:37:00,84.1,77.3,29.92,ESE,107,6.0,11.0,80,0.00,,---,0.00,VWS V14.01,2013-07-20 21:37:00,
2013-07-20 16:42:00,84.3,77.5,29.92,ESE,116,6.0,11.0,80,0.00,,---,0.00,VWS V14.01,2013-07-20 21:42:00,
2013-07-20 16:47:00,84.6,77.0,29.92,East,90,8.0,11.0,78,0.00,,---,0.00,VWS V14.01,2013-07-20 21:47:00,
2013-07-20 16:52:00,85.2,77.9,29.92,ESE,105,4.0,11.0,79,0.00,,---,0.00,VWS V14.01,2013-07-20 21:52:00,
2013-07-20 16:57:00,85.5,77.1,29.92,ESE,123,10.0,11.0,76,0.00,,---,0.00,VWS V14.01,2013-07-20 21:57:00,
2013-07-20 17:02:00,85.4,77.4,29.92,East,84,4.0,9.0,77,0.00,,---,0.00,VWS V14.01,2013-07-20 22:02:00,
2013-07-20 17:07:00,86.0,77.9,29.91,South,187,4.0,10.0,77,0.00,,---,0.00,VWS V14.01,2013-07-20 22:07:00,
2013-07-20 17:12:00,86.3,77.4,29.91,ESE,123,8.0,10.0,75,0.00,,---,0.00,VWS V14.01,2013-07-20 22:12:00,
2013-07-20 17:17:00,86.3,77.4,29.91,ESE,118,7.0,10.0,75,0.00,,---,0.00,VWS V14.01,2013-07-20 22:17:00,
2013-07-20 17:22:00,86.1,76.4,29.91,ESE,122,3.0,10.0,73,0.00,,---,0.00,VWS V14.01,2013-07-20 22:22:00,
2013-07-20 17:27:00,86.1,76.8,29.90,SE,145,3.0,10.0,74,0.00,,---,0.00,VWS V14.01,2013-07-20 22:27:00,
2013-07-20 17:33:00,86.1,77.2,29.90,SSE,154,10.0,10.0,75,0.00,,---,0.00,VWS V14.01,2013-07-20 22:33:00,
2013-07-20 17:38:00,86.2,76.5,29.90,SE,134,6.0,10.0,73,0.00,,---,0.00,VWS V14.01,2013-07-20 22:38:00,
2013-07-20 17:43:00,86.3,77.0,29.90,ESE,122,4.0,10.0,74,0.00,,---,0.00,VWS V14.01,2013-07-20 22:43:00,
2013-07-20 17:48:00,86.1,77.2,29.90,SSE,149,7.0,12.0,75,0.00,,---,0.00,VWS V14.01,2013-07-20 22:48:00,
2013-07-20 17:53:00,86.1,76.8,29.90,South,181,6.0,12.0,74,0.00,,---,0.00,VWS V14.01,2013-07-20 22:53:00,
2013-07-20 17:58:00,85.9,77.1,29.90,SE,134,5.0,12.0,75,0.00,,---,0.00,VWS V14.01,2013-07-20 22:58:00,
2013-07-20 18:03:00,85.4,76.6,29.89,SE,129,9.0,11.0,75,0.00,,---,0.00,VWS V14.01,2013-07-20 23:03:00,
2013-07-20 18:08:00,85.3,76.9,29.89,SE,127,6.0,11.0,76,0.00,,---,0.00,VWS V14.01,2013-07-20 23:08:00,
2013-07-20 18:13:00,85.5,77.5,29.89,East,96,7.0,11.0,77,0.00,,---,0.00,VWS V14.01,2013-07-20 23:13:00,
2013-07-20 18:18:00,85.1,77.1,29.89,SE,139,2.0,11.0,77,0.00,,---,0.00,VWS V14.01,2013-07-20 23:18:00,
2013-07-20 18:23:00,85.1,76.7,29.90,ESE,117,7.0,12.0,76,0.00,,---,0.00,VWS V14.01,2013-07-20 23:23:00,
2013-07-20 18:28:00,85.5,77.9,29.90,ESE,120,7.0,12.0,78,0.00,,---,0.00,VWS V14.01,2013-07-20 23:28:00,
2013-07-20 18:33:00,85.3,76.9,29.90,ESE,112,8.0,12.0,76,0.00,,---,0.00,VWS V14.01,2013-07-20 23:33:00,
2013-07-20 18:38:00,85.0,77.0,29.90,ESE,109,4.0,12.0,77,0.00,,---,0.00,VWS V14.01,2013-07-20 23:38:00,
2013-07-20 18:43:00,84.9,77.3,29.90,ESE,117,6.0,12.0,78,0.00,,---,0.00,VWS V14.01,2013-07-20 23:43:00,
2013-07-20 18:48:00,84.9,76.9,29.90,East,96,7.0,12.0,77,0.00,,---,0.00,VWS V14.01,2013-07-20 23:48:00,
2013-07-20 18:53:00,84.8,76.8,29.90,ESE,113,7.0,12.0,77,0.00,,---,0.00,VWS V14.01,2013-07-20 23:53:00,
2013-07-20 18:58:00,85.0,77.4,29.90,ESE,121,7.0,12.0,78,0.00,,---,0.00,VWS V14.01,2013-07-20 23:58:00,
2013-07-20 19:03:00,85.0,77.0,29.90,ESE,122,6.0,9.0,77,0.00,,---,0.00,VWS V14.01,2013-07-21 00:03:00,
2013-07-20 19:09:00,84.8,77.2,29.90,ESE,118,6.0,10.0,78,0.00,,---,0.00,VWS V14.01,2013-07-21 00:09:00,
2013-07-20 19:14:00,84.7,76.7,29.90,SE,141,6.0,11.0,77,0.00,,---,0.00,VWS V14.01,2013-07-21 00:14:00,
2013-07-20 19:19:00,84.5,76.9,29.90,SE,132,4.0,11.0,78,0.00,,---,0.00,VWS V14.01,2013-07-21 00:19:00,
2013-07-20 19:24:00,84.4,76.8,29.90,SSW,194,6.0,11.0,78,0.00,,---,0.00,VWS V14.01,2013-07-21 00:24:00,
2013-07-20 19:29:00,84.4,77.2,29.90,SE,146,2.0,11.0,79,0.00,,---,0.00,VWS V14.01,2013-07-21 00:29:00,
2013-07-20 19:34:00,84.5,77.3,29.90,ESE,117,6.0,11.0,79,0.00,,---,0.00,VWS V14.01,2013-07-21 00:34:00,
2013-07-20 19:39:00,84.4,77.2,29.90,ESE,111,6.0,11.0,79,0.00,,---,0.00,VWS V14.01,2013-07-21 00:39:00,
2013-07-20 19:44:00,84.2,77.0,29.90,ESE,103,10.0,11.0,79,0.00,,---,0.00,VWS V14.01,2013-07-21 00:44:00,
2013-07-20 19:49:00,84.1,77.3,29.89,SE,146,1.0,11.0,80,0.00,,---,0.00,VWS V14.01,2013-07-21 00:49:00,
2013-07-20 19:54:00,83.6,77.2,29.89,ESE,118,10.0,11.0,81,0.00,,---,0.00,VWS V14.01,2013-07-21 00:54:00,
2013-07-20 19:59:00,83.2,76.8,29.89,ESE,105,6.0,11.0,81,0.00,,---,0.00,VWS V14.01,2013-07-21 00:59:00,
2013-07-20 20:04:00,83.0,76.9,29.89,South,175,3.0,10.0,82,0.00,,---,0.00,VWS V14.01,2013-07-21 01:04:00,
2013-07-20 20:09:00,82.8,76.4,29.89,SE,141,10.0,11.0,81,0.00,,---,0.00,VWS V14.01,2013-07-21 01:09:00,
2013-07-20 20:15:00,82.8,76.8,29.89,SE,142,2.0,11.0,82,0.00,,---,0.00,VWS V14.01,2013-07-21 01:15:00,
2013-07-20 20:20:00,82.8,76.8,29.89,SSE,158,5.0,11.0,82,0.00,,---,0.00,VWS V14.01,2013-07-21 01:20:00,
2013-07-20 20:25:00,82.6,75.8,29.89,SE,137,7.0,11.0,80,0.00,,---,0.00,VWS V14.01,2013-07-21 01:25:00,
2013-07-20 20:31:00,82.7,75.5,29.88,East,97,3.0,12.0,79,0.00,,---,0.00,VWS V14.01,2013-07-21 01:31:00,
2013-07-20 20:36:00,82.8,76.4,29.89,SSE,149,8.0,12.0,81,0.00,,---,0.00,VWS V14.01,2013-07-21 01:36:00,
2013-07-20 20:41:00,82.8,76.8,29.89,SSE,150,6.0,12.0,82,0.00,,---,0.00,VWS V14.01,2013-07-21 01:41:00,
2013-07-20 20:46:00,82.7,76.3,29.89,SE,143,8.0,12.0,81,0.00,,---,0.00,VWS V14.01,2013-07-21 01:46:00,
2013-07-20 20:51:00,82.7,76.7,29.89,SE,145,7.0,12.0,82,0.00,,---,0.00,VWS V14.01,2013-07-21 01:51:00,
2013-07-20 20:56:00,82.7,77.0,29.89,SE,125,10.0,12.0,83,0.00,,---,0.00,VWS V14.01,2013-07-21 01:56:00,
2013-07-20 21:02:00,82.6,76.9,29.89,SSE,148,7.0,11.0,83,0.00,,---,0.00,VWS V14.01,2013-07-21 02:02:00,
2013-07-20 21:07:00,82.6,77.3,29.89,SE,146,8.0,15.0,84,0.00,,---,0.00,VWS V14.01,2013-07-21 02:07:00,
2013-07-20 21:12:00,82.5,77.2,29.89,SSE,158,8.0,15.0,84,0.00,,---,0.00,VWS V14.01,2013-07-21 02:12:00,
2013-07-20 21:17:00,82.6,77.6,29.90,South,190,8.0,15.0,85,0.00,,---,0.00,VWS V14.01,2013-07-21 02:17:00,
2013-07-20 21:22:00,82.6,77.6,29.90,SE,144,3.0,15.0,85,0.00,,---,0.00,VWS V14.01,2013-07-21 02:22:00,
2013-07-20 21:27:00,82.5,77.2,29.90,SE,145,6.0,15.0,84,0.00,,---,0.00,VWS V14.01,2013-07-21 02:27:00,
2013-07-20 21:32:00,82.5,77.5,29.90,SE,145,4.0,15.0,85,0.00,,---,0.00,VWS V14.01,2013-07-21 02:32:00,
2013-07-20 21:37:00,82.6,77.6,29.90,South,174,2.0,15.0,85,0.00,,---,0.00,VWS V14.01,2013-07-21 02:37:00,
2013-07-20 21:42:00,82.6,77.6,29.90,SE,143,7.0,15.0,85,0.00,,---,0.00,VWS V14.01,2013-07-21 02:42:00,
2013-07-20 21:47:00,82.8,77.8,29.91,ESE,102,7.0,15.0,85,0.00,,---,0.00,VWS V14.01,2013-07-21 02:47:00,
2013-07-20 21:52:00,82.7,77.4,29.91,SE,129,7.0,15.0,84,0.00,,---,0.00,VWS V14.01,2013-07-21 02:52:00,
2013-07-20 21:57:00,82.6,77.3,29.91,SE,138,10.0,15.0,84,0.00,,---,0.00,VWS V14.01,2013-07-21 02:57:00,
2013-07-20 22:02:00,82.5,77.2,29.91,SE,129,6.0,12.0,84,0.00,,---,0.00,VWS V14.01,2013-07-21 03:02:00,
2013-07-20 22:08:00,82.5,77.5,29.92,SSE,155,2.0,12.0,85,0.00,,---,0.00,VWS V14.01,2013-07-21 03:08:00,
2013-07-20 22:13:00,82.5,77.9,29.92,SE,129,7.0,12.0,86,0.00,,---,0.00,VWS V14.01,2013-07-21 03:13:00,
2013-07-20 22:18:00,82.5,77.9,29.92,South,184,4.0,12.0,86,0.00,,---,0.00,VWS V14.01,2013-07-21 03:18:00,
2013-07-20 22:23:00,82.5,77.9,29.92,SE,128,4.0,12.0,86,0.00,,---,0.00,VWS V14.01,2013-07-21 03:23:00,
2013-07-20 22:28:00,82.5,77.9,29.92,SE,146,6.0,14.0,86,0.00,,---,0.00,VWS V14.01,2013-07-21 03:28:00,
2013-07-20 22:33:00,82.5,77.5,29.92,SSE,148,10.0,14.0,85,0.00,,---,0.00,VWS V14.01,2013-07-21 03:33:00,
2013-07-20 22:38:00,82.5,77.9,29.92,SSE,167,5.0,14.0,86,0.00,,---,0.00,VWS V14.01,2013-07-21 03:38:00,
2013-07-20 22:43:00,82.5,77.9,29.93,SSE,149,7.0,14.0,86,0.00,,---,0.00,VWS V14.01,2013-07-21 03:43:00,
2013-07-20 22:48:00,82.5,77.9,29.93,SE,143,7.0,14.0,86,0.00,,---,0.00,VWS V14.01,2013-07-21 03:48:00,
2013-07-20 22:53:00,82.4,77.4,29.93,SSE,163,8.0,14.0,85,0.00,,---,0.00,VWS V14.01,2013-07-21 03:53:00,
2013-07-20 22:59:00,82.4,77.4,29.93,SSE,150,3.0,14.0,85,0.00,,---,0.00,VWS V14.01,2013-07-21 03:59:00,
2013-07-20 23:01:00,82.5,77.5,29.93,South,186,7.0,14.0,85,0.00,,---,0.00,VWS V14.01,2013-07-21 04:01:00,
2013-07-20 23:06:00,82.4,77.4,29.94,SSE,155,3.0,11.0,85,0.00,,---,0.00,VWS V14.01,2013-07-21 04:06:00,
2013-07-20 23:11:00,82.3,77.3,29.94,SSE,148,8.0,13.0,85,0.00,,---,0.00,VWS V14.01,2013-07-21 04:11:00,
2013-07-20 23:16:00,82.3,77.0,29.94,South,173,10.0,13.0,84,0.00,,---,0.00,VWS V14.01,2013-07-21 04:16:00,
2013-07-20 23:21:00,82.4,77.4,29.94,South,181,7.0,13.0,85,0.00,,---,0.00,VWS V14.01,2013-07-21 04:21:00,
2013-07-20 23:26:00,82.3,77.3,29.94,SSE,164,6.0,13.0,85,0.00,,---,0.00,VWS V14.01,2013-07-21 04:26:00,
2013-07-20 23:31:00,82.4,77.8,29.94,SSW,195,9.0,13.0,86,0.00,,---,0.00,VWS V14.01,2013-07-21 04:31:00,
2013-07-20 23:36:00,82.3,77.3,29.95,SSE,162,5.0,15.0,85,0.00,,---,0.00,VWS V14.01,2013-07-21 04:36:00,
2013-07-20 23:41:00,82.3,77.3,29.94,South,175,6.0,15.0,85,0.00,,---,0.00,VWS V14.01,2013-07-21 04:41:00,
2013-07-20 23:46:00,82.4,77.4,29.95,South,176,7.0,15.0,85,0.00,,---,0.00,VWS V14.01,2013-07-21 04:46:00,
2013-07-20 23:51:00,82.3,77.0,29.95,South,184,9.0,15.0,84,0.00,,---,0.00,VWS V14.01,2013-07-21 04:51:00,
2013-07-20 23:56:00,82.3,76.6,29.95,SSE,153,11.0,15.0,83,0.00,,---,0.00,VWS V14.01,2013-07-21 04:56:00,